Wetterdaten: Donnerstag, 16.07.2015
Datum Zeit Temp. A. Feuchte A. Luftdruck Regen Wind Richtung Richtung Sonnenschein ET UV Solar Taupunkt Windchill Windben Empfang
16.07.2015 00:00 17,0 C 81 % 1018,2 hPa 0,0 l/m 0,0 km/h (0 Bft) NO 38 0 min 0,000 mm 0,0 UV-I 0 W/m 13,7 C 17,0 C 0,0 km/h (0 Bft) 0,00 %
16.07.2015 00:05 16,9 C 81 % 1018,2 hPa 0,0 l/m 0,0 km/h (0 Bft) NO 36 0 min 0,000 mm 0,0 UV-I 0 W/m 13,6 C 16,9 C 0,0 km/h (0 Bft) 0,00 %
16.07.2015 00:10 16,8 C 82 % 1018,2 hPa 0,0 l/m 0,0 km/h (0 Bft) NO 48 0 min 0,000 mm 0,0 UV-I 0 W/m 13,7 C 16,8 C 0,0 km/h (0 Bft) 0,00 %
16.07.2015 00:15 16,8 C 82 % 1018,2 hPa 0,0 l/m 0,0 km/h (0 Bft) NO 48 0 min 0,000 mm 0,0 UV-I 0 W/m 13,7 C 16,8 C 0,0 km/h (0 Bft) 0,00 %
16.07.2015 00:20 16,6 C 82 % 1018,3 hPa 0,0 l/m 0,0 km/h (0 Bft) NO 41 0 min 0,000 mm 0,0 UV-I 0 W/m 13,5 C 16,6 C 0,0 km/h (0 Bft) 0,00 %
16.07.2015 00:25 16,6 C 82 % 1018,1 hPa 0,0 l/m 0,0 km/h (0 Bft) NO 40 0 min 0,000 mm 0,0 UV-I 0 W/m 13,5 C 16,6 C 0,0 km/h (0 Bft) 0,00 %
16.07.2015 00:30 16,5 C 82 % 1018,3 hPa 0,0 l/m 0,0 km/h (0 Bft) NO 44 0 min 0,000 mm 0,0 UV-I 0 W/m 13,4 C 16,5 C 0,0 km/h (0 Bft) 0,00 %
16.07.2015 00:35 16,5 C 83 % 1018,1 hPa 0,0 l/m 0,0 km/h (0 Bft) NO 51 0 min 0,000 mm 0,0 UV-I 0 W/m 13,6 C 16,5 C 0,0 km/h (0 Bft) 0,00 %
16.07.2015 00:40 16,4 C 83 % 1018,4 hPa 0,0 l/m 0,0 km/h (0 Bft) NO 36 0 min 0,000 mm 0,0 UV-I 0 W/m 13,5 C 16,4 C 0,0 km/h (0 Bft) 0,00 %
16.07.2015 00:45 16,4 C 83 % 1018,2 hPa 0,0 l/m 0,0 km/h (0 Bft) NO 36 0 min 0,000 mm 0,0 UV-I 0 W/m 13,5 C 16,4 C 0,0 km/h (0 Bft) 0,00 %
16.07.2015 00:50 16,3 C 83 % 1018,5 hPa 0,0 l/m 0,0 km/h (0 Bft) NO 36 0 min 0,000 mm 0,0 UV-I 0 W/m 13,4 C 16,3 C 0,0 km/h (0 Bft) 0,00 %
16.07.2015 00:55 16,3 C 84 % 1018,3 hPa 0,0 l/m 0,0 km/h (0 Bft) NO 36 0 min 0,000 mm 0,0 UV-I 0 W/m 13,6 C 16,3 C 0,0 km/h (0 Bft) 0,00 %
16.07.2015 01:00 16,2 C 85 % 1018,5 hPa 0,0 l/m 0,0 km/h (0 Bft) NO 36 0 min 0,000 mm 0,0 UV-I 0 W/m 13,7 C 16,2 C 0,0 km/h (0 Bft) 0,00 %
16.07.2015 01:05 16,1 C 86 % 1018,6 hPa 0,0 l/m 0,0 km/h (0 Bft) NO 36 0 min 0,000 mm 0,0 UV-I 0 W/m 13,8 C 16,1 C 0,0 km/h (0 Bft) 0,00 %
16.07.2015 01:10 15,9 C 87 % 1018,6 hPa 0,0 l/m 0,0 km/h (0 Bft) NO 53 0 min 0,000 mm 0,0 UV-I 0 W/m 13,7 C 15,9 C 0,0 km/h (0 Bft) 0,00 %
16.07.2015 01:15 15,7 C 87 % 1018,6 hPa 0,0 l/m 0,0 km/h (0 Bft) O-NO 64 0 min 0,000 mm 0,0 UV-I 0 W/m 13,5 C 15,7 C 0,0 km/h (0 Bft) 0,00 %
16.07.2015 01:20 15,7 C 88 % 1018,6 hPa 0,0 l/m 0,0 km/h (0 Bft) NO 54 0 min 0,000 mm 0,0 UV-I 0 W/m 13,7 C 15,7 C 0,0 km/h (0 Bft) 0,00 %
16.07.2015 01:25 15,6 C 88 % 1018,6 hPa 0,0 l/m 0,0 km/h (0 Bft) NO 45 0 min 0,000 mm 0,0 UV-I 0 W/m 13,6 C 15,6 C 0,0 km/h (0 Bft) 0,00 %
16.07.2015 01:30 15,6 C 88 % 1018,6 hPa 0,0 l/m 0,0 km/h (0 Bft) NO 48 0 min 0,000 mm 0,0 UV-I 0 W/m 13,6 C 15,6 C 0,0 km/h (0 Bft) 0,00 %
16.07.2015 01:35 15,6 C 89 % 1018,6 hPa 0,0 l/m 0,0 km/h (0 Bft) O 82 0 min 0,000 mm 0,0 UV-I 0 W/m 13,8 C 15,6 C 0,0 km/h (0 Bft) 0,00 %
16.07.2015 01:40 15,7 C 89 % 1018,5 hPa 0,0 l/m 0,0 km/h (0 Bft) NO 36 0 min 0,000 mm 0,0 UV-I 0 W/m 13,9 C 15,7 C 0,0 km/h (0 Bft) 0,00 %
16.07.2015 01:45 15,7 C 89 % 1018,4 hPa 0,0 l/m 0,0 km/h (0 Bft) O-NO 66 0 min 0,000 mm 0,0 UV-I 0 W/m 13,9 C 15,7 C 0,0 km/h (0 Bft) 0,00 %
16.07.2015 01:50 15,6 C 88 % 1018,5 hPa 0,0 l/m 0,0 km/h (0 Bft) O-NO 65 0 min 0,000 mm 0,0 UV-I 0 W/m 13,6 C 15,6 C 0,0 km/h (0 Bft) 0,00 %
16.07.2015 01:55 15,6 C 88 % 1018,4 hPa 0,0 l/m 0,0 km/h (0 Bft) O-NO 65 0 min 0,000 mm 0,0 UV-I 0 W/m 13,6 C 15,6 C 0,0 km/h (0 Bft) 0,00 %
16.07.2015 02:00 15,5 C 89 % 1018,4 hPa 0,0 l/m 0,0 km/h (0 Bft) O-NO 66 0 min 0,000 mm 0,0 UV-I 0 W/m 13,7 C 15,5 C 0,0 km/h (0 Bft) 0,00 %
16.07.2015 02:05 15,4 C 89 % 1018,3 hPa 0,0 l/m 0,0 km/h (0 Bft) O-NO 65 0 min 0,000 mm 0,0 UV-I 0 W/m 13,6 C 15,4 C 0,0 km/h (0 Bft) 0,00 %
16.07.2015 02:10 15,4 C 89 % 1018,5 hPa 0,0 l/m 0,0 km/h (0 Bft) O-NO 63 0 min 0,000 mm 0,0 UV-I 0 W/m 13,6 C 15,4 C 0,0 km/h (0 Bft) 0,00 %
16.07.2015 02:15 15,3 C 89 % 1018,5 hPa 0,0 l/m 0,0 km/h (0 Bft) O-NO 63 0 min 0,000 mm 0,0 UV-I 0 W/m 13,5 C 15,3 C 0,0 km/h (0 Bft) 0,00 %
16.07.2015 02:20 15,3 C 89 % 1018,4 hPa 0,0 l/m 0,0 km/h (0 Bft) O-NO 63 0 min 0,000 mm 0,0 UV-I 0 W/m 13,5 C 15,3 C 0,0 km/h (0 Bft) 0,00 %
16.07.2015 02:25 15,2 C 89 % 1018,2 hPa 0,0 l/m 0,0 km/h (0 Bft) O-NO 63 0 min 0,000 mm 0,0 UV-I 0 W/m 13,4 C 15,2 C 0,0 km/h (0 Bft) 0,00 %
16.07.2015 02:30 15,2 C 89 % 1018,5 hPa 0,0 l/m 0,0 km/h (0 Bft) O-NO 62 0 min 0,000 mm 0,0 UV-I 0 W/m 13,4 C 15,2 C 0,0 km/h (0 Bft) 0,00 %
16.07.2015 02:35 15,1 C 91 % 1018,5 hPa 0,0 l/m 0,0 km/h (0 Bft) O-NO 62 0 min 0,000 mm 0,0 UV-I 0 W/m 13,6 C 15,1 C 0,0 km/h (0 Bft) 0,00 %
16.07.2015 02:40 15,0 C 91 % 1018,3 hPa 0,0 l/m 0,0 km/h (0 Bft) O-NO 62 0 min 0,000 mm 0,0 UV-I 0 W/m 13,5 C 15,0 C 0,0 km/h (0 Bft) 0,00 %
16.07.2015 02:45 14,9 C 91 % 1018,4 hPa 0,0 l/m 0,0 km/h (0 Bft) O-NO 62 0 min 0,000 mm 0,0 UV-I 0 W/m 13,4 C 14,9 C 0,0 km/h (0 Bft) 0,00 %
16.07.2015 02:50 14,8 C 92 % 1018,4 hPa 0,0 l/m 0,0 km/h (0 Bft) O-NO 62 0 min 0,000 mm 0,0 UV-I 0 W/m 13,5 C 14,8 C 0,0 km/h (0 Bft) 0,00 %
16.07.2015 02:55 14,7 C 92 % 1018,3 hPa 0,0 l/m 0,0 km/h (0 Bft) O-NO 62 0 min 0,000 mm 0,0 UV-I 0 W/m 13,4 C 14,7 C 0,0 km/h (0 Bft) 0,00 %
16.07.2015 03:00 14,6 C 92 % 1018,5 hPa 0,0 l/m 0,0 km/h (0 Bft) O-NO 62 0 min 0,000 mm 0,0 UV-I 0 W/m 13,3 C 14,6 C 0,0 km/h (0 Bft) 0,00 %
16.07.2015 03:05 14,6 C 92 % 1018,4 hPa 0,0 l/m 0,0 km/h (0 Bft) O-NO 62 0 min 0,000 mm 0,0 UV-I 0 W/m 13,3 C 14,6 C 0,0 km/h (0 Bft) 0,00 %
16.07.2015 03:10 14,5 C 92 % 1018,5 hPa 0,0 l/m 0,0 km/h (0 Bft) O-NO 62 0 min 0,000 mm 0,0 UV-I 0 W/m 13,2 C 14,5 C 0,0 km/h (0 Bft) 0,00 %
16.07.2015 03:15 14,4 C 92 % 1018,7 hPa 0,0 l/m 0,0 km/h (0 Bft) O-NO 62 0 min 0,000 mm 0,0 UV-I 0 W/m 13,1 C 14,4 C 0,0 km/h (0 Bft) 0,00 %
16.07.2015 03:20 14,4 C 92 % 1018,6 hPa 0,0 l/m 0,0 km/h (0 Bft) O-NO 62 0 min 0,000 mm 0,0 UV-I 0 W/m 13,1 C 14,4 C 0,0 km/h (0 Bft) 0,00 %
16.07.2015 03:25 14,4 C 92 % 1018,6 hPa 0,0 l/m 0,0 km/h (0 Bft) O-NO 62 0 min 0,000 mm 0,0 UV-I 0 W/m 13,1 C 14,4 C 0,0 km/h (0 Bft) 0,00 %
16.07.2015 03:30 14,3 C 92 % 1018,5 hPa 0,0 l/m 0,0 km/h (0 Bft) O-NO 62 0 min 0,000 mm 0,0 UV-I 0 W/m 13,0 C 14,3 C 0,0 km/h (0 Bft) 0,00 %
16.07.2015 03:35 14,2 C 92 % 1018,5 hPa 0,0 l/m 0,0 km/h (0 Bft) O-NO 62 0 min 0,000 mm 0,0 UV-I 0 W/m 12,9 C 14,2 C 0,0 km/h (0 Bft) 0,00 %
16.07.2015 03:40 14,2 C 93 % 1018,5 hPa 0,0 l/m 0,0 km/h (0 Bft) O-NO 62 0 min 0,000 mm 0,0 UV-I 0 W/m 13,1 C 14,2 C 0,0 km/h (0 Bft) 0,00 %
16.07.2015 03:45 14,1 C 93 % 1018,5 hPa 0,0 l/m 0,0 km/h (0 Bft) O-NO 62 0 min 0,000 mm 0,0 UV-I 0 W/m 13,0 C 14,1 C 0,0 km/h (0 Bft) 0,00 %
16.07.2015 03:50 14,1 C 94 % 1018,5 hPa 0,0 l/m 0,0 km/h (0 Bft) O-NO 66 0 min 0,000 mm 0,0 UV-I 0 W/m 13,1 C 14,1 C 0,0 km/h (0 Bft) 0,00 %
16.07.2015 03:55 14,2 C 94 % 1018,5 hPa 0,0 l/m 0,0 km/h (0 Bft) O-NO 78 0 min 0,000 mm 0,0 UV-I 0 W/m 13,2 C 14,2 C 0,0 km/h (0 Bft) 0,00 %
16.07.2015 04:00 14,3 C 95 % 1018,4 hPa 0,0 l/m 0,0 km/h (0 Bft) O 80 0 min 0,000 mm 0,0 UV-I 0 W/m 13,5 C 14,3 C 0,0 km/h (0 Bft) 0,00 %
16.07.2015 04:05 14,4 C 95 % 1018,4 hPa 0,0 l/m 0,0 km/h (0 Bft) O 81 0 min 0,000 mm 0,0 UV-I 0 W/m 13,6 C 14,4 C 0,0 km/h (0 Bft) 0,00 %
16.07.2015 04:10 14,5 C 95 % 1018,4 hPa 0,0 l/m 0,0 km/h (0 Bft) O 81 0 min 0,000 mm 0,0 UV-I 0 W/m 13,7 C 14,5 C 0,0 km/h (0 Bft) 0,00 %
16.07.2015 04:15 14,6 C 95 % 1018,2 hPa 0,0 l/m 0,0 km/h (0 Bft) O 81 0 min 0,000 mm 0,0 UV-I 0 W/m 13,8 C 14,6 C 0,0 km/h (0 Bft) 0,00 %
16.07.2015 04:20 14,6 C 94 % 1018,2 hPa 0,0 l/m 0,0 km/h (0 Bft) O 81 0 min 0,000 mm 0,0 UV-I 0 W/m 13,6 C 14,6 C 0,0 km/h (0 Bft) 0,00 %
16.07.2015 04:25 14,6 C 94 % 1018,2 hPa 0,0 l/m 0,0 km/h (0 Bft) O-NO 74 0 min 0,000 mm 0,0 UV-I 0 W/m 13,6 C 14,6 C 0,0 km/h (0 Bft) 0,00 %
16.07.2015 04:30 14,5 C 93 % 1018,4 hPa 0,0 l/m 0,0 km/h (0 Bft) O-NO 74 0 min 0,000 mm 0,0 UV-I 0 W/m 13,4 C 14,5 C 0,0 km/h (0 Bft) 0,00 %
16.07.2015 04:35 14,4 C 93 % 1018,4 hPa 0,0 l/m 0,0 km/h (0 Bft) O-NO 74 0 min 0,000 mm 0,0 UV-I 0 W/m 13,3 C 14,4 C 0,0 km/h (0 Bft) 0,00 %
16.07.2015 04:40 14,3 C 93 % 1018,4 hPa 0,0 l/m 0,0 km/h (0 Bft) O-NO 74 0 min 0,000 mm 0,0 UV-I 0 W/m 13,2 C 14,3 C 0,0 km/h (0 Bft) 0,00 %
16.07.2015 04:45 14,2 C 94 % 1018,3 hPa 0,0 l/m 0,0 km/h (0 Bft) O-NO 74 0 min 0,000 mm 0,0 UV-I 0 W/m 13,2 C 14,2 C 0,0 km/h (0 Bft) 0,00 %
16.07.2015 04:50 14,0 C 94 % 1018,4 hPa 0,0 l/m 0,0 km/h (0 Bft) O-NO 74 0 min 0,000 mm 0,0 UV-I 0 W/m 13,0 C 14,0 C 0,0 km/h (0 Bft) 0,00 %
16.07.2015 04:55 14,0 C 94 % 1018,5 hPa 0,0 l/m 0,0 km/h (0 Bft) O-NO 74 0 min 0,000 mm 0,0 UV-I 0 W/m 13,0 C 14,0 C 0,0 km/h (0 Bft) 0,00 %
16.07.2015 05:00 13,9 C 94 % 1018,5 hPa 0,0 l/m 0,0 km/h (0 Bft) O-NO 74 0 min 0,000 mm 0,0 UV-I 0 W/m 12,9 C 13,9 C 0,0 km/h (0 Bft) 0,00 %
16.07.2015 05:05 13,8 C 94 % 1018,5 hPa 0,0 l/m 0,0 km/h (0 Bft) O-NO 74 0 min 0,000 mm 0,0 UV-I 0 W/m 12,9 C 13,8 C 0,0 km/h (0 Bft) 0,00 %
16.07.2015 05:10 13,7 C 95 % 1018,5 hPa 0,0 l/m 0,0 km/h (0 Bft) O-NO 74 0 min 0,000 mm 0,0 UV-I 0 W/m 12,9 C 13,7 C 0,0 km/h (0 Bft) 0,00 %
16.07.2015 05:15 13,6 C 95 % 1018,4 hPa 0,0 l/m 0,0 km/h (0 Bft) O-NO 74 0 min 0,000 mm 0,0 UV-I 0 W/m 12,8 C 13,6 C 0,0 km/h (0 Bft) 0,00 %
16.07.2015 05:20 13,6 C 95 % 1018,5 hPa 0,0 l/m 0,0 km/h (0 Bft) O-NO 74 0 min 0,000 mm 0,0 UV-I 0 W/m 12,8 C 13,6 C 0,0 km/h (0 Bft) 0,00 %
16.07.2015 05:25 13,4 C 95 % 1018,7 hPa 0,0 l/m 0,0 km/h (0 Bft) O-NO 74 0 min 0,000 mm 0,0 UV-I 1 W/m 12,6 C 13,4 C 0,0 km/h (0 Bft) 0,00 %
16.07.2015 05:30 13,4 C 95 % 1018,3 hPa 0,0 l/m 0,0 km/h (0 Bft) O-NO 74 0 min 0,000 mm 0,0 UV-I 5 W/m 12,6 C 13,4 C 0,0 km/h (0 Bft) 0,00 %
16.07.2015 05:35 13,4 C 95 % 1018,5 hPa 0,0 l/m 0,0 km/h (0 Bft) O-NO 74 0 min 0,000 mm 0,0 UV-I 11 W/m 12,6 C 13,4 C 0,0 km/h (0 Bft) 0,00 %
16.07.2015 05:40 13,4 C 95 % 1018,2 hPa 0,0 l/m 0,0 km/h (0 Bft) O-NO 74 0 min 0,000 mm 0,0 UV-I 19 W/m 12,6 C 13,4 C 0,0 km/h (0 Bft) 0,00 %
16.07.2015 05:45 13,4 C 95 % 1018,5 hPa 0,0 l/m 0,0 km/h (0 Bft) O-NO 74 0 min 0,000 mm 0,0 UV-I 25 W/m 12,6 C 13,4 C 0,0 km/h (0 Bft) 0,00 %
16.07.2015 05:50 13,4 C 95 % 1018,5 hPa 0,0 l/m 0,0 km/h (0 Bft) O-NO 74 5 min 0,000 mm 0,0 UV-I 33 W/m 12,6 C 13,4 C 0,0 km/h (0 Bft) 0,00 %
16.07.2015 05:55 13,4 C 95 % 1018,5 hPa 0,0 l/m 0,0 km/h (0 Bft) O-NO 74 5 min 0,000 mm 0,0 UV-I 55 W/m 12,6 C 13,4 C 0,0 km/h (0 Bft) 0,00 %
16.07.2015 06:00 13,5 C 95 % 1018,6 hPa 0,0 l/m 0,0 km/h (0 Bft) O-NO 74 5 min 0,000 mm 0,0 UV-I 67 W/m 12,7 C 13,5 C 0,0 km/h (0 Bft) 0,00 %
16.07.2015 06:05 13,8 C 95 % 1018,7 hPa 0,0 l/m 0,0 km/h (0 Bft) O-NO 74 5 min 0,000 mm 0,0 UV-I 115 W/m 13,0 C 13,8 C 0,0 km/h (0 Bft) 0,00 %
16.07.2015 06:10 14,3 C 94 % 1018,5 hPa 0,0 l/m 0,0 km/h (0 Bft) O-NO 73 5 min 0,000 mm 0,0 UV-I 138 W/m 13,3 C 14,3 C 0,0 km/h (0 Bft) 0,00 %
16.07.2015 06:15 14,9 C 93 % 1018,4 hPa 0,0 l/m 0,0 km/h (0 Bft) O-NO 73 5 min 0,000 mm 0,0 UV-I 159 W/m 13,8 C 14,9 C 0,0 km/h (0 Bft) 0,00 %
16.07.2015 06:20 15,6 C 90 % 1018,3 hPa 0,0 l/m 0,0 km/h (0 Bft) O-NO 73 5 min 0,000 mm 0,0 UV-I 179 W/m 14,0 C 15,6 C 0,0 km/h (0 Bft) 0,00 %
16.07.2015 06:25 16,4 C 86 % 1018,2 hPa 0,0 l/m 0,0 km/h (0 Bft) O-NO 73 5 min 0,000 mm 0,0 UV-I 195 W/m 14,1 C 16,4 C 0,0 km/h (0 Bft) 0,00 %
16.07.2015 06:30 17,0 C 81 % 1018,1 hPa 0,0 l/m 0,0 km/h (0 Bft) O-NO 73 5 min 0,000 mm 0,0 UV-I 236 W/m 13,7 C 17,0 C 0,0 km/h (0 Bft) 0,00 %
16.07.2015 06:35 17,6 C 77 % 1018,1 hPa 0,0 l/m 0,0 km/h (0 Bft) O-NO 73 5 min 0,000 mm 1,0 UV-I 256 W/m 13,5 C 17,6 C 0,0 km/h (0 Bft) 0,00 %
16.07.2015 06:40 18,2 C 75 % 1018,0 hPa 0,0 l/m 0,0 km/h (0 Bft) O-NO 73 5 min 0,000 mm 1,0 UV-I 274 W/m 13,7 C 18,2 C 0,0 km/h (0 Bft) 0,00 %
16.07.2015 06:45 18,9 C 73 % 1017,9 hPa 0,0 l/m 0,0 km/h (0 Bft) O 84 5 min 0,000 mm 1,0 UV-I 291 W/m 13,9 C 18,9 C 0,0 km/h (0 Bft) 0,00 %
16.07.2015 06:50 19,2 C 72 % 1017,6 hPa 0,0 l/m 0,4 km/h (0 Bft) O 81 5 min 0,000 mm 1,0 UV-I 306 W/m 14,0 C 19,2 C 4,0 km/h (1 Bft) 0,00 %
16.07.2015 06:55 19,3 C 72 % 1017,7 hPa 0,0 l/m 0,4 km/h (0 Bft) O-NO 74 5 min 0,000 mm 1,0 UV-I 321 W/m 14,1 C 19,3 C 4,0 km/h (1 Bft) 0,00 %
16.07.2015 07:00 19,4 C 72 % 1017,6 hPa 0,0 l/m 0,0 km/h (0 Bft) O 90 5 min 0,000 mm 1,0 UV-I 338 W/m 14,2 C 19,4 C 0,0 km/h (0 Bft) 0,00 %
16.07.2015 07:05 19,5 C 71 % 1017,5 hPa 0,0 l/m 0,0 km/h (0 Bft) O-NO 73 5 min 0,000 mm 1,0 UV-I 350 W/m 14,1 C 19,5 C 0,0 km/h (0 Bft) 0,00 %
16.07.2015 07:10 19,8 C 69 % 1017,6 hPa 0,0 l/m 0,0 km/h (0 Bft) NO 54 5 min 0,000 mm 1,0 UV-I 359 W/m 13,9 C 19,8 C 0,0 km/h (0 Bft) 0,00 %
16.07.2015 07:15 20,1 C 69 % 1017,6 hPa 0,0 l/m 0,4 km/h (0 Bft) O 87 5 min 0,000 mm 1,0 UV-I 367 W/m 14,2 C 20,1 C 4,0 km/h (1 Bft) 0,00 %
16.07.2015 07:20 20,2 C 70 % 1017,7 hPa 0,0 l/m 1,4 km/h (1 Bft) O 95 5 min 0,000 mm 1,0 UV-I 373 W/m 14,5 C 20,2 C 4,0 km/h (1 Bft) 0,00 %
16.07.2015 07:25 20,3 C 69 % 1017,6 hPa 0,0 l/m 0,4 km/h (0 Bft) NO 36 5 min 0,000 mm 1,0 UV-I 385 W/m 14,4 C 20,3 C 4,0 km/h (1 Bft) 0,00 %
16.07.2015 07:30 20,4 C 69 % 1017,6 hPa 0,0 l/m 0,0 km/h (0 Bft) NO 43 5 min 0,000 mm 1,0 UV-I 393 W/m 14,5 C 20,4 C 0,0 km/h (0 Bft) 0,00 %
16.07.2015 07:35 20,6 C 69 % 1017,5 hPa 0,0 l/m 0,0 km/h (0 Bft) O-NO 65 5 min 0,000 mm 1,0 UV-I 398 W/m 14,7 C 20,6 C 0,0 km/h (0 Bft) 0,00 %
16.07.2015 07:40 20,7 C 66 % 1017,4 hPa 0,0 l/m 0,0 km/h (0 Bft) NO 52 5 min 0,000 mm 1,0 UV-I 403 W/m 14,1 C 20,7 C 0,0 km/h (0 Bft) 0,00 %
16.07.2015 07:45 21,0 C 65 % 1017,5 hPa 0,0 l/m 0,0 km/h (0 Bft) O-SO 107 5 min 0,000 mm 1,0 UV-I 409 W/m 14,2 C 21,0 C 0,0 km/h (0 Bft) 0,00 %
16.07.2015 07:50 21,5 C 64 % 1017,4 hPa 0,0 l/m 0,0 km/h (0 Bft) NO 44 5 min 0,000 mm 1,0 UV-I 413 W/m 14,4 C 21,5 C 0,0 km/h (0 Bft) 0,00 %
16.07.2015 07:55 21,8 C 63 % 1017,5 hPa 0,0 l/m 0,0 km/h (0 Bft) NO 39 5 min 0,000 mm 1,0 UV-I 418 W/m 14,4 C 21,8 C 0,0 km/h (0 Bft) 0,00 %
16.07.2015 08:00 22,1 C 64 % 1017,3 hPa 0,0 l/m 0,0 km/h (0 Bft) O-SO 103 5 min 0,000 mm 1,0 UV-I 425 W/m 15,0 C 22,1 C 0,0 km/h (0 Bft) 0,00 %
16.07.2015 08:05 22,1 C 63 % 1017,4 hPa 0,0 l/m 0,0 km/h (0 Bft) NO 53 5 min 0,000 mm 1,0 UV-I 429 W/m 14,7 C 22,1 C 0,0 km/h (0 Bft) 0,00 %
16.07.2015 08:10 22,4 C 62 % 1017,5 hPa 0,0 l/m 0,0 km/h (0 Bft) N-NW 334 5 min 0,000 mm 1,0 UV-I 406 W/m 14,8 C 22,4 C 0,0 km/h (0 Bft) 0,00 %
16.07.2015 08:15 22,7 C 60 % 1017,2 hPa 0,0 l/m 0,0 km/h (0 Bft) N-NO 29 5 min 0,000 mm 1,0 UV-I 441 W/m 14,5 C 22,7 C 0,0 km/h (0 Bft) 0,00 %
16.07.2015 08:20 23,1 C 58 % 1017,4 hPa 0,0 l/m 0,0 km/h (0 Bft) O-NO 67 5 min 0,000 mm 1,0 UV-I 447 W/m 14,4 C 23,1 C 0,0 km/h (0 Bft) 0,00 %
16.07.2015 08:25 23,5 C 58 % 1017,2 hPa 0,0 l/m 0,0 km/h (0 Bft) NO 51 5 min 0,000 mm 1,0 UV-I 454 W/m 14,7 C 23,5 C 0,0 km/h (0 Bft) 0,00 %
16.07.2015 08:30 23,8 C 55 % 1017,3 hPa 0,0 l/m 0,7 km/h (0 Bft) O 85 5 min 0,000 mm 1,0 UV-I 464 W/m 14,2 C 23,8 C 4,0 km/h (1 Bft) 0,00 %
16.07.2015 08:35 23,9 C 58 % 1017,3 hPa 0,0 l/m 0,4 km/h (0 Bft) O 93 5 min 0,000 mm 2,0 UV-I 472 W/m 15,1 C 23,9 C 4,0 km/h (1 Bft) 0,00 %
16.07.2015 08:40 24,0 C 55 % 1017,2 hPa 0,0 l/m 0,0 km/h (0 Bft) O-NO 57 5 min 0,000 mm 2,0 UV-I 448 W/m 14,4 C 24,0 C 0,0 km/h (0 Bft) 0,00 %
16.07.2015 08:45 24,3 C 53 % 1017,2 hPa 0,0 l/m 0,0 km/h (0 Bft) N-NO 30 5 min 0,000 mm 2,0 UV-I 483 W/m 14,1 C 24,3 C 0,0 km/h (0 Bft) 0,00 %
16.07.2015 08:50 24,5 C 55 % 1017,3 hPa 0,0 l/m 0,0 km/h (0 Bft) NO 38 5 min 0,000 mm 2,0 UV-I 492 W/m 14,9 C 24,5 C 0,0 km/h (0 Bft) 0,00 %
16.07.2015 08:55 24,5 C 54 % 1017,4 hPa 0,0 l/m 0,0 km/h (0 Bft) N 352 5 min 0,000 mm 2,0 UV-I 504 W/m 14,6 C 24,5 C 0,0 km/h (0 Bft) 0,00 %
16.07.2015 09:00 24,5 C 53 % 1017,4 hPa 0,0 l/m 2,9 km/h (1 Bft) O-NO 73 5 min 0,000 mm 2,0 UV-I 496 W/m 14,3 C 24,5 C 4,0 km/h (1 Bft) 0,00 %
16.07.2015 09:05 24,5 C 54 % 1017,3 hPa 0,0 l/m 5,8 km/h (2 Bft) O-SO 119 5 min 0,000 mm 2,0 UV-I 517 W/m 14,6 C 24,5 C 7,9 km/h (2 Bft) 0,00 %
16.07.2015 09:10 24,5 C 55 % 1017,3 hPa 0,0 l/m 1,4 km/h (1 Bft) NO 35 5 min 0,000 mm 2,0 UV-I 526 W/m 14,9 C 24,5 C 4,0 km/h (1 Bft) 0,00 %
16.07.2015 09:15 24,6 C 53 % 1017,2 hPa 0,0 l/m 0,0 km/h (0 Bft) NO 38 5 min 0,000 mm 2,0 UV-I 533 W/m 14,4 C 24,6 C 0,0 km/h (0 Bft) 0,00 %
16.07.2015 09:20 24,8 C 52 % 1017,1 hPa 0,0 l/m 0,4 km/h (0 Bft) O-SO 109 5 min 0,000 mm 2,0 UV-I 548 W/m 14,3 C 24,8 C 4,0 km/h (1 Bft) 0,00 %
16.07.2015 09:25 24,9 C 52 % 1017,1 hPa 0,0 l/m 1,8 km/h (1 Bft) N 355 5 min 0,000 mm 2,0 UV-I 558 W/m 14,4 C 24,9 C 4,0 km/h (1 Bft) 0,00 %
16.07.2015 09:30 25,0 C 55 % 1017,2 hPa 0,0 l/m 0,4 km/h (0 Bft) O 96 5 min 0,000 mm 2,0 UV-I 569 W/m 15,3 C 25,0 C 4,0 km/h (1 Bft) 0,00 %
16.07.2015 09:35 25,2 C 53 % 1017,2 hPa 0,0 l/m 6,5 km/h (2 Bft) O 88 5 min 0,000 mm 2,0 UV-I 578 W/m 14,9 C 25,2 C 7,9 km/h (2 Bft) 0,00 %
16.07.2015 09:40 25,4 C 54 % 1017,0 hPa 0,0 l/m 5,4 km/h (1 Bft) O 95 5 min 0,000 mm 2,0 UV-I 584 W/m 15,4 C 25,4 C 7,9 km/h (2 Bft) 0,00 %
16.07.2015 09:45 25,5 C 51 % 1017,0 hPa 0,0 l/m 1,4 km/h (1 Bft) O-SO 102 5 min 0,000 mm 2,0 UV-I 597 W/m 14,6 C 25,5 C 4,0 km/h (1 Bft) 0,00 %
16.07.2015 09:50 25,5 C 52 % 1016,9 hPa 0,0 l/m 0,0 km/h (0 Bft) O-SO 104 5 min 0,000 mm 3,0 UV-I 607 W/m 14,9 C 25,5 C 0,0 km/h (0 Bft) 0,00 %
16.07.2015 09:55 25,8 C 50 % 1017,0 hPa 0,0 l/m 6,5 km/h (2 Bft) O-SO 117 5 min 0,000 mm 3,0 UV-I 622 W/m 14,6 C 25,8 C 11,9 km/h (2 Bft) 0,00 %
16.07.2015 10:00 26,1 C 48 % 1016,9 hPa 0,0 l/m 1,4 km/h (1 Bft) O-SO 117 5 min 0,000 mm 3,0 UV-I 632 W/m 14,2 C 26,1 C 4,0 km/h (1 Bft) 0,00 %
16.07.2015 10:05 26,2 C 48 % 1016,9 hPa 0,0 l/m 4,0 km/h (1 Bft) NO 47 5 min 0,000 mm 3,0 UV-I 637 W/m 14,3 C 26,2 C 7,9 km/h (2 Bft) 0,00 %
16.07.2015 10:10 26,4 C 48 % 1016,9 hPa 0,0 l/m 0,7 km/h (0 Bft) O-SO 115 5 min 0,000 mm 3,0 UV-I 669 W/m 14,5 C 26,4 C 4,0 km/h (1 Bft) 0,00 %
16.07.2015 10:15 26,5 C 48 % 1016,9 hPa 0,0 l/m 2,2 km/h (1 Bft) O-NO 69 5 min 0,000 mm 3,0 UV-I 683 W/m 14,6 C 26,5 C 4,0 km/h (1 Bft) 0,00 %
16.07.2015 10:20 26,8 C 48 % 1016,8 hPa 0,0 l/m 1,4 km/h (1 Bft) N-NO 26 5 min 0,000 mm 3,0 UV-I 694 W/m 14,9 C 26,8 C 4,0 km/h (1 Bft) 0,00 %
16.07.2015 10:25 26,9 C 48 % 1016,7 hPa 0,0 l/m 1,4 km/h (1 Bft) NO 56 5 min 0,000 mm 3,0 UV-I 704 W/m 14,9 C 26,9 C 4,0 km/h (1 Bft) 0,00 %
16.07.2015 10:30 26,9 C 48 % 1016,7 hPa 0,0 l/m 0,0 km/h (0 Bft) O-NO 73 5 min 0,000 mm 3,0 UV-I 716 W/m 14,9 C 26,9 C 0,0 km/h (0 Bft) 0,00 %
16.07.2015 10:35 27,2 C 46 % 1016,7 hPa 0,0 l/m 0,7 km/h (0 Bft) N-NW 332 5 min 0,000 mm 3,0 UV-I 726 W/m 14,6 C 27,2 C 4,0 km/h (1 Bft) 0,00 %
16.07.2015 10:40 27,6 C 46 % 1016,7 hPa 0,0 l/m 0,0 km/h (0 Bft) NO 43 5 min 0,000 mm 3,0 UV-I 727 W/m 14,9 C 27,6 C 0,0 km/h (0 Bft) 0,00 %
16.07.2015 10:45 27,7 C 46 % 1016,5 hPa 0,0 l/m 3,2 km/h (1 Bft) NO 54 5 min 0,000 mm 4,0 UV-I 743 W/m 15,0 C 27,7 C 4,0 km/h (1 Bft) 0,00 %
16.07.2015 10:50 27,8 C 47 % 1016,7 hPa 0,0 l/m 5,8 km/h (2 Bft) O-SO 103 5 min 0,000 mm 4,0 UV-I 772 W/m 15,4 C 27,8 C 7,9 km/h (2 Bft) 0,00 %
16.07.2015 10:55 27,8 C 47 % 1016,6 hPa 0,0 l/m 0,0 km/h (0 Bft) O 100 5 min 0,000 mm 4,0 UV-I 781 W/m 15,4 C 27,8 C 0,0 km/h (0 Bft) 0,00 %
16.07.2015 11:00 27,8 C 46 % 1016,5 hPa 0,0 l/m 0,0 km/h (0 Bft) N-NO 17 5 min 0,000 mm 4,0 UV-I 792 W/m 15,1 C 27,8 C 0,0 km/h (0 Bft) 0,00 %
16.07.2015 11:05 28,0 C 43 % 1016,6 hPa 0,0 l/m 0,0 km/h (0 Bft) O-NO 63 5 min 0,000 mm 4,0 UV-I 798 W/m 14,2 C 28,0 C 0,0 km/h (0 Bft) 0,00 %
16.07.2015 11:10 28,2 C 45 % 1016,3 hPa 0,0 l/m 1,8 km/h (1 Bft) O-NO 74 5 min 0,000 mm 4,0 UV-I 800 W/m 15,1 C 28,2 C 4,0 km/h (1 Bft) 0,00 %
16.07.2015 11:15 28,4 C 43 % 1016,3 hPa 0,0 l/m 2,2 km/h (1 Bft) NO 36 5 min 0,000 mm 4,0 UV-I 811 W/m 14,6 C 28,4 C 4,0 km/h (1 Bft) 0,00 %
16.07.2015 11:20 28,8 C 43 % 1016,1 hPa 0,0 l/m 0,4 km/h (0 Bft) O-SO 122 5 min 0,000 mm 5,0 UV-I 815 W/m 15,0 C 28,8 C 4,0 km/h (1 Bft) 0,00 %
16.07.2015 11:25 29,1 C 41 % 1016,2 hPa 0,0 l/m 0,0 km/h (0 Bft) NO 40 5 min 0,000 mm 5,0 UV-I 818 W/m 14,5 C 29,1 C 0,0 km/h (0 Bft) 0,00 %
16.07.2015 11:30 29,3 C 41 % 1015,9 hPa 0,0 l/m 0,4 km/h (0 Bft) NO 53 5 min 0,000 mm 5,0 UV-I 826 W/m 14,7 C 29,3 C 4,0 km/h (1 Bft) 0,00 %
16.07.2015 11:35 29,4 C 41 % 1016,1 hPa 0,0 l/m 0,0 km/h (0 Bft) NO 48 5 min 0,000 mm 5,0 UV-I 825 W/m 14,7 C 29,4 C 0,0 km/h (0 Bft) 0,00 %
16.07.2015 11:40 29,2 C 41 % 1016,2 hPa 0,0 l/m 0,0 km/h (0 Bft) O-NO 59 5 min 0,000 mm 5,0 UV-I 831 W/m 14,6 C 29,2 C 0,0 km/h (0 Bft) 0,00 %
16.07.2015 11:45 29,2 C 41 % 1015,9 hPa 0,0 l/m 1,4 km/h (1 Bft) N 357 5 min 0,000 mm 5,0 UV-I 836 W/m 14,6 C 29,2 C 4,0 km/h (1 Bft) 0,00 %
16.07.2015 11:50 29,2 C 41 % 1015,9 hPa 0,0 l/m 5,4 km/h (1 Bft) O-NO 73 5 min 0,000 mm 5,0 UV-I 845 W/m 14,6 C 29,2 C 7,9 km/h (2 Bft) 0,00 %
16.07.2015 11:55 29,0 C 40 % 1015,9 hPa 0,0 l/m 0,0 km/h (0 Bft) O-NO 67 5 min 0,000 mm 5,0 UV-I 844 W/m 14,0 C 29,0 C 0,0 km/h (0 Bft) 0,00 %
16.07.2015 12:00 29,0 C 41 % 1015,8 hPa 0,0 l/m 0,0 km/h (0 Bft) N-NO 23 5 min 0,000 mm 5,0 UV-I 855 W/m 14,4 C 29,0 C 0,0 km/h (0 Bft) 0,00 %
16.07.2015 12:05 29,2 C 40 % 1015,8 hPa 0,0 l/m 6,5 km/h (2 Bft) O-SO 106 5 min 0,000 mm 5,0 UV-I 853 W/m 14,2 C 29,2 C 11,9 km/h (2 Bft) 0,00 %
16.07.2015 12:10 29,1 C 40 % 1015,7 hPa 0,0 l/m 0,0 km/h (0 Bft) NO 36 5 min 0,000 mm 5,0 UV-I 862 W/m 14,1 C 29,1 C 0,0 km/h (0 Bft) 0,00 %
16.07.2015 12:15 29,0 C 41 % 1015,7 hPa 0,0 l/m 1,8 km/h (1 Bft) O-NO 62 5 min 0,000 mm 5,0 UV-I 866 W/m 14,4 C 29,0 C 4,0 km/h (1 Bft) 0,00 %
16.07.2015 12:20 28,9 C 40 % 1015,7 hPa 0,0 l/m 0,0 km/h (0 Bft) O 88 5 min 0,000 mm 5,0 UV-I 876 W/m 13,9 C 28,9 C 0,0 km/h (0 Bft) 0,00 %
16.07.2015 12:25 29,0 C 40 % 1015,7 hPa 0,0 l/m 0,0 km/h (0 Bft) NO 40 5 min 0,000 mm 5,0 UV-I 876 W/m 14,0 C 29,0 C 0,0 km/h (0 Bft) 0,00 %
16.07.2015 12:30 29,1 C 40 % 1015,7 hPa 0,0 l/m 1,4 km/h (1 Bft) N-NO 17 5 min 0,000 mm 5,0 UV-I 882 W/m 14,1 C 29,1 C 4,0 km/h (1 Bft) 0,00 %
16.07.2015 12:35 29,0 C 41 % 1015,6 hPa 0,0 l/m 2,9 km/h (1 Bft) O-NO 73 5 min 0,000 mm 6,0 UV-I 884 W/m 14,4 C 29,0 C 7,9 km/h (2 Bft) 0,00 %
16.07.2015 12:40 29,0 C 39 % 1015,7 hPa 0,0 l/m 4,7 km/h (1 Bft) NO 46 5 min 0,000 mm 6,0 UV-I 892 W/m 13,6 C 29,0 C 7,9 km/h (2 Bft) 0,00 %
16.07.2015 12:45 29,1 C 38 % 1015,5 hPa 0,0 l/m 0,0 km/h (0 Bft) O-NO 75 5 min 0,000 mm 6,0 UV-I 913 W/m 13,3 C 29,1 C 0,0 km/h (0 Bft) 0,00 %
16.07.2015 12:50 29,2 C 35 % 1015,5 hPa 0,0 l/m 0,4 km/h (0 Bft) W-SW 253 5 min 0,000 mm 6,0 UV-I 914 W/m 12,1 C 29,2 C 4,0 km/h (1 Bft) 0,00 %
16.07.2015 12:55 29,4 C 35 % 1015,5 hPa 0,0 l/m 4,0 km/h (1 Bft) O-SO 109 5 min 0,000 mm 6,0 UV-I 908 W/m 12,3 C 29,4 C 7,9 km/h (2 Bft) 0,00 %
16.07.2015 13:00 29,4 C 34 % 1015,3 hPa 0,0 l/m 0,4 km/h (0 Bft) O-NO 68 5 min 0,000 mm 6,0 UV-I 909 W/m 11,9 C 29,4 C 4,0 km/h (1 Bft) 0,00 %
16.07.2015 13:05 29,4 C 36 % 1015,2 hPa 0,0 l/m 0,0 km/h (0 Bft) NO 47 5 min 0,000 mm 6,0 UV-I 919 W/m 12,7 C 29,4 C 0,0 km/h (0 Bft) 0,00 %
16.07.2015 13:10 29,6 C 36 % 1015,1 hPa 0,0 l/m 0,0 km/h (0 Bft) O-NO 57 5 min 0,000 mm 6,0 UV-I 936 W/m 12,9 C 29,6 C 0,0 km/h (0 Bft) 0,00 %
16.07.2015 13:15 29,7 C 35 % 1015,1 hPa 0,0 l/m 1,4 km/h (1 Bft) N 7 5 min 0,000 mm 6,0 UV-I 931 W/m 12,6 C 29,7 C 4,0 km/h (1 Bft) 0,00 %
16.07.2015 13:20 29,8 C 36 % 1015,2 hPa 0,0 l/m 0,0 km/h (0 Bft) O 80 5 min 0,000 mm 5,0 UV-I 925 W/m 13,1 C 29,8 C 0,0 km/h (0 Bft) 0,00 %
16.07.2015 13:25 30,0 C 36 % 1015,0 hPa 0,0 l/m 1,8 km/h (1 Bft) O 85 5 min 0,000 mm 5,0 UV-I 937 W/m 13,3 C 30,0 C 4,0 km/h (1 Bft) 0,00 %
16.07.2015 13:30 30,1 C 34 % 1015,1 hPa 0,0 l/m 0,0 km/h (0 Bft) O-NO 71 5 min 0,000 mm 5,0 UV-I 946 W/m 12,5 C 30,1 C 0,0 km/h (0 Bft) 0,00 %
16.07.2015 13:35 30,2 C 32 % 1015,0 hPa 0,0 l/m 0,0 km/h (0 Bft) O 86 5 min 0,000 mm 5,0 UV-I 949 W/m 11,7 C 30,2 C 0,0 km/h (0 Bft) 0,00 %
16.07.2015 13:40 30,3 C 32 % 1015,0 hPa 0,0 l/m 1,8 km/h (1 Bft) W-NW 298 5 min 0,000 mm 5,0 UV-I 949 W/m 11,7 C 30,3 C 4,0 km/h (1 Bft) 0,00 %
16.07.2015 13:45 30,4 C 38 % 1014,9 hPa 0,0 l/m 0,0 km/h (0 Bft) N-NO 23 5 min 0,000 mm 5,0 UV-I 964 W/m 14,5 C 30,4 C 0,0 km/h (0 Bft) 0,00 %
16.07.2015 13:50 30,7 C 30 % 1014,7 hPa 0,0 l/m 0,0 km/h (0 Bft) N-NO 30 5 min 0,000 mm 5,0 UV-I 961 W/m 11,1 C 30,7 C 0,0 km/h (0 Bft) 0,00 %
16.07.2015 13:55 30,9 C 32 % 1014,8 hPa 0,0 l/m 0,0 km/h (0 Bft) N-NW 347 5 min 0,000 mm 5,0 UV-I 952 W/m 12,3 C 30,9 C 0,0 km/h (0 Bft) 0,00 %
16.07.2015 14:00 31,0 C 32 % 1014,6 hPa 0,0 l/m 2,2 km/h (1 Bft) N-NW 348 5 min 0,000 mm 5,0 UV-I 948 W/m 12,3 C 31,0 C 4,0 km/h (1 Bft) 0,00 %
16.07.2015 14:05 30,8 C 37 % 1014,6 hPa 0,0 l/m 0,0 km/h (0 Bft) N-NO 21 5 min 0,000 mm 5,0 UV-I 950 W/m 14,4 C 30,8 C 0,0 km/h (0 Bft) 0,00 %
16.07.2015 14:10 30,7 C 33 % 1014,4 hPa 0,0 l/m 0,0 km/h (0 Bft) O-NO 65 5 min 0,000 mm 5,0 UV-I 957 W/m 12,6 C 30,7 C 0,0 km/h (0 Bft) 0,00 %
16.07.2015 14:15 30,9 C 35 % 1014,6 hPa 0,0 l/m 0,0 km/h (0 Bft) NO 54 5 min 0,000 mm 5,0 UV-I 968 W/m 13,6 C 30,9 C 0,0 km/h (0 Bft) 0,00 %
16.07.2015 14:20 31,2 C 28 % 1014,3 hPa 0,0 l/m 0,0 km/h (0 Bft) NO 44 5 min 0,000 mm 5,0 UV-I 968 W/m 10,5 C 31,2 C 0,0 km/h (0 Bft) 0,00 %
16.07.2015 14:25 31,5 C 28 % 1014,1 hPa 0,0 l/m 0,0 km/h (0 Bft) O-NO 61 5 min 0,000 mm 5,0 UV-I 962 W/m 10,8 C 31,5 C 0,0 km/h (0 Bft) 0,00 %
16.07.2015 14:30 31,8 C 29 % 1013,9 hPa 0,0 l/m 0,0 km/h (0 Bft) N 349 5 min 0,000 mm 5,0 UV-I 965 W/m 11,5 C 31,8 C 0,0 km/h (0 Bft) 0,00 %
16.07.2015 14:35 31,8 C 28 % 1014,0 hPa 0,0 l/m 0,4 km/h (0 Bft) N 352 5 min 0,000 mm 5,0 UV-I 971 W/m 11,0 C 31,8 C 4,0 km/h (1 Bft) 0,00 %
16.07.2015 14:40 31,6 C 28 % 1014,0 hPa 0,0 l/m 0,0 km/h (0 Bft) N-NO 21 5 min 0,000 mm 5,0 UV-I 959 W/m 10,8 C 31,6 C 0,0 km/h (0 Bft) 0,00 %
16.07.2015 14:45 31,5 C 30 % 1013,9 hPa 0,0 l/m 1,8 km/h (1 Bft) O 85 5 min 0,000 mm 5,0 UV-I 955 W/m 11,8 C 31,5 C 4,0 km/h (1 Bft) 0,00 %
16.07.2015 14:50 31,6 C 28 % 1014,0 hPa 0,0 l/m 0,4 km/h (0 Bft) NO 55 5 min 0,000 mm 5,0 UV-I 949 W/m 10,8 C 31,6 C 4,0 km/h (1 Bft) 0,00 %
16.07.2015 14:55 31,6 C 29 % 1014,1 hPa 0,0 l/m 0,0 km/h (0 Bft) O-NO 63 5 min 0,000 mm 5,0 UV-I 952 W/m 11,4 C 31,6 C 0,0 km/h (0 Bft) 0,00 %
16.07.2015 15:00 31,6 C 31 % 1013,9 hPa 0,0 l/m 0,4 km/h (0 Bft) NO 35 5 min 0,000 mm 4,0 UV-I 961 W/m 12,4 C 31,6 C 4,0 km/h (1 Bft) 0,00 %
16.07.2015 15:05 31,9 C 32 % 1013,6 hPa 0,0 l/m 1,8 km/h (1 Bft) SO 138 5 min 0,000 mm 4,0 UV-I 950 W/m 13,1 C 31,9 C 4,0 km/h (1 Bft) 0,00 %
16.07.2015 15:10 32,0 C 29 % 1013,8 hPa 0,0 l/m 0,4 km/h (0 Bft) O 84 5 min 0,000 mm 4,0 UV-I 952 W/m 11,7 C 32,0 C 4,0 km/h (1 Bft) 0,00 %
16.07.2015 15:15 32,0 C 32 % 1013,6 hPa 0,0 l/m 0,4 km/h (0 Bft) O-NO 74 5 min 0,000 mm 4,0 UV-I 948 W/m 13,2 C 32,0 C 4,0 km/h (1 Bft) 0,00 %
16.07.2015 15:20 32,2 C 32 % 1013,9 hPa 0,0 l/m 0,0 km/h (0 Bft) NO 51 5 min 0,000 mm 4,0 UV-I 936 W/m 13,4 C 32,2 C 0,0 km/h (0 Bft) 0,00 %
16.07.2015 15:25 32,2 C 29 % 1013,6 hPa 0,0 l/m 0,7 km/h (0 Bft) N-NO 31 5 min 0,000 mm 4,0 UV-I 924 W/m 11,9 C 32,2 C 4,0 km/h (1 Bft) 0,00 %
16.07.2015 15:30 32,0 C 29 % 1013,7 hPa 0,0 l/m 3,2 km/h (1 Bft) O-SO 117 5 min 0,000 mm 4,0 UV-I 925 W/m 11,7 C 32,0 C 4,0 km/h (1 Bft) 0,00 %
16.07.2015 15:35 31,7 C 28 % 1013,5 hPa 0,0 l/m 0,0 km/h (0 Bft) N-NO 19 5 min 0,000 mm 4,0 UV-I 922 W/m 10,9 C 31,7 C 0,0 km/h (0 Bft) 0,00 %
16.07.2015 15:40 31,7 C 29 % 1013,8 hPa 0,0 l/m 0,0 km/h (0 Bft) NO 52 5 min 0,000 mm 4,0 UV-I 923 W/m 11,5 C 31,7 C 0,0 km/h (0 Bft) 0,00 %
16.07.2015 15:45 31,9 C 32 % 1013,4 hPa 0,0 l/m 0,0 km/h (0 Bft) O-NO 76 5 min 0,000 mm 4,0 UV-I 913 W/m 13,1 C 31,9 C 0,0 km/h (0 Bft) 0,00 %
16.07.2015 15:50 32,1 C 32 % 1013,3 hPa 0,0 l/m 0,4 km/h (0 Bft) O-NO 65 5 min 0,000 mm 4,0 UV-I 903 W/m 13,3 C 32,1 C 4,0 km/h (1 Bft) 0,00 %
16.07.2015 15:55 32,3 C 31 % 1013,3 hPa 0,0 l/m 0,0 km/h (0 Bft) N-NO 13 5 min 0,000 mm 3,0 UV-I 900 W/m 13,0 C 32,3 C 0,0 km/h (0 Bft) 0,00 %
16.07.2015 16:00 32,4 C 31 % 1013,2 hPa 0,0 l/m 0,0 km/h (0 Bft) NO 36 5 min 0,000 mm 3,0 UV-I 886 W/m 13,1 C 32,4 C 0,0 km/h (0 Bft) 0,00 %
16.07.2015 16:05 32,2 C 31 % 1013,2 hPa 0,0 l/m 0,0 km/h (0 Bft) O-NO 73 5 min 0,000 mm 3,0 UV-I 870 W/m 12,9 C 32,2 C 0,0 km/h (0 Bft) 0,00 %
16.07.2015 16:10 32,2 C 29 % 1013,0 hPa 0,0 l/m 1,8 km/h (1 Bft) O 93 5 min 0,000 mm 3,0 UV-I 864 W/m 11,9 C 32,2 C 4,0 km/h (1 Bft) 0,00 %
16.07.2015 16:15 32,3 C 31 % 1012,9 hPa 0,0 l/m 1,4 km/h (1 Bft) SO 128 5 min 0,000 mm 3,0 UV-I 858 W/m 13,0 C 32,3 C 4,0 km/h (1 Bft) 0,00 %
16.07.2015 16:20 32,0 C 28 % 1013,0 hPa 0,0 l/m 0,0 km/h (0 Bft) NO 43 5 min 0,000 mm 3,0 UV-I 850 W/m 11,2 C 32,0 C 0,0 km/h (0 Bft) 0,00 %
16.07.2015 16:25 31,9 C 29 % 1012,9 hPa 0,0 l/m 0,0 km/h (0 Bft) NO 36 5 min 0,000 mm 3,0 UV-I 846 W/m 11,6 C 31,9 C 0,0 km/h (0 Bft) 0,00 %
16.07.2015 16:30 31,7 C 28 % 1012,7 hPa 0,0 l/m 0,0 km/h (0 Bft) N-NO 20 5 min 0,000 mm 3,0 UV-I 850 W/m 10,9 C 31,7 C 0,0 km/h (0 Bft) 0,00 %
16.07.2015 16:35 31,5 C 30 % 1012,7 hPa 0,0 l/m 0,0 km/h (0 Bft) NO 36 5 min 0,000 mm 3,0 UV-I 830 W/m 11,8 C 31,5 C 0,0 km/h (0 Bft) 0,00 %
16.07.2015 16:40 31,6 C 32 % 1012,6 hPa 0,0 l/m 1,4 km/h (1 Bft) N-NW 348 5 min 0,000 mm 3,0 UV-I 826 W/m 12,9 C 31,6 C 4,0 km/h (1 Bft) 0,00 %
16.07.2015 16:45 32,1 C 28 % 1012,7 hPa 0,0 l/m 1,8 km/h (1 Bft) N-NW 346 5 min 0,000 mm 3,0 UV-I 821 W/m 11,3 C 32,1 C 4,0 km/h (1 Bft) 0,00 %
16.07.2015 16:50 32,6 C 31 % 1012,7 hPa 0,0 l/m 0,7 km/h (0 Bft) N-NO 32 5 min 0,000 mm 3,0 UV-I 808 W/m 13,2 C 32,6 C 4,0 km/h (1 Bft) 0,00 %
16.07.2015 16:55 32,6 C 30 % 1012,6 hPa 0,0 l/m 3,2 km/h (1 Bft) N-NW 342 5 min 0,000 mm 2,0 UV-I 785 W/m 12,7 C 32,6 C 4,0 km/h (1 Bft) 0,00 %
16.07.2015 17:00 32,3 C 32 % 1012,7 hPa 0,0 l/m 6,8 km/h (2 Bft) N-NW 330 5 min 0,000 mm 2,0 UV-I 763 W/m 13,5 C 32,3 C 7,9 km/h (2 Bft) 0,00 %
16.07.2015 17:05 32,0 C 31 % 1012,9 hPa 0,0 l/m 0,4 km/h (0 Bft) N 353 5 min 0,000 mm 2,0 UV-I 752 W/m 12,7 C 32,0 C 4,0 km/h (1 Bft) 0,00 %
16.07.2015 17:10 31,9 C 29 % 1012,8 hPa 0,0 l/m 0,4 km/h (0 Bft) N 350 5 min 0,000 mm 2,0 UV-I 736 W/m 11,6 C 31,9 C 4,0 km/h (1 Bft) 0,00 %
16.07.2015 17:15 31,8 C 27 % 1012,7 hPa 0,0 l/m 0,0 km/h (0 Bft) N 353 5 min 0,000 mm 2,0 UV-I 716 W/m 10,5 C 31,8 C 0,0 km/h (0 Bft) 0,00 %
16.07.2015 17:20 31,8 C 29 % 1012,8 hPa 0,0 l/m 0,0 km/h (0 Bft) N-NO 19 5 min 0,000 mm 2,0 UV-I 690 W/m 11,5 C 31,8 C 0,0 km/h (0 Bft) 0,00 %
16.07.2015 17:25 32,0 C 30 % 1012,9 hPa 0,0 l/m 0,0 km/h (0 Bft) N-NO 31 5 min 0,000 mm 2,0 UV-I 671 W/m 12,2 C 32,0 C 0,0 km/h (0 Bft) 0,00 %
16.07.2015 17:30 32,3 C 30 % 1012,7 hPa 0,0 l/m 5,8 km/h (2 Bft) NW 318 5 min 0,000 mm 2,0 UV-I 656 W/m 12,5 C 32,3 C 7,9 km/h (2 Bft) 0,00 %
16.07.2015 17:35 32,5 C 32 % 1012,8 hPa 0,0 l/m 0,0 km/h (0 Bft) NO 44 5 min 0,000 mm 1,0 UV-I 643 W/m 13,6 C 32,5 C 0,0 km/h (0 Bft) 0,00 %
16.07.2015 17:40 32,5 C 32 % 1012,6 hPa 0,0 l/m 0,0 km/h (0 Bft) N-NO 33 5 min 0,000 mm 1,0 UV-I 626 W/m 13,6 C 32,5 C 0,0 km/h (0 Bft) 0,00 %
16.07.2015 17:45 32,6 C 30 % 1012,6 hPa 0,0 l/m 0,0 km/h (0 Bft) N-NO 32 5 min 0,000 mm 1,0 UV-I 612 W/m 12,7 C 32,6 C 0,0 km/h (0 Bft) 0,00 %
16.07.2015 17:50 32,7 C 31 % 1012,5 hPa 0,0 l/m 0,0 km/h (0 Bft) N-NO 26 5 min 0,000 mm 1,0 UV-I 578 W/m 13,3 C 32,7 C 0,0 km/h (0 Bft) 0,00 %
16.07.2015 17:55 32,6 C 31 % 1012,5 hPa 0,0 l/m 0,4 km/h (0 Bft) N-NO 30 5 min 0,000 mm 1,0 UV-I 568 W/m 13,2 C 32,6 C 4,0 km/h (1 Bft) 0,00 %
16.07.2015 18:00 32,5 C 32 % 1012,6 hPa 0,0 l/m 0,0 km/h (0 Bft) NO 47 5 min 0,000 mm 1,0 UV-I 524 W/m 13,6 C 32,5 C 0,0 km/h (0 Bft) 0,00 %
16.07.2015 18:05 32,4 C 31 % 1012,5 hPa 0,0 l/m 0,0 km/h (0 Bft) NO 39 5 min 0,000 mm 1,0 UV-I 498 W/m 13,1 C 32,4 C 0,0 km/h (0 Bft) 0,00 %
16.07.2015 18:10 32,2 C 27 % 1012,5 hPa 0,0 l/m 3,2 km/h (1 Bft) N-NW 346 5 min 0,000 mm 1,0 UV-I 465 W/m 10,8 C 32,2 C 7,9 km/h (2 Bft) 0,00 %
16.07.2015 18:15 31,9 C 29 % 1012,5 hPa 0,0 l/m 0,0 km/h (0 Bft) NO 34 5 min 0,000 mm 1,0 UV-I 462 W/m 11,6 C 31,9 C 0,0 km/h (0 Bft) 0,00 %
16.07.2015 18:20 31,6 C 28 % 1012,5 hPa 0,0 l/m 4,3 km/h (1 Bft) NW 325 5 min 0,000 mm 1,0 UV-I 416 W/m 10,8 C 31,6 C 11,9 km/h (2 Bft) 0,00 %
16.07.2015 18:25 31,6 C 28 % 1012,5 hPa 0,0 l/m 0,0 km/h (0 Bft) NO 40 5 min 0,000 mm 1,0 UV-I 387 W/m 10,8 C 31,6 C 0,0 km/h (0 Bft) 0,00 %
16.07.2015 18:30 31,6 C 26 % 1012,6 hPa 0,0 l/m 0,0 km/h (0 Bft) N 0 5 min 0,000 mm 1,0 UV-I 351 W/m 9,7 C 31,6 C 0,0 km/h (0 Bft) 0,00 %
16.07.2015 18:35 31,8 C 28 % 1012,4 hPa 0,0 l/m 0,0 km/h (0 Bft) N 352 5 min 0,000 mm 1,0 UV-I 332 W/m 11,0 C 31,8 C 0,0 km/h (0 Bft) 0,00 %
16.07.2015 18:40 31,8 C 28 % 1012,2 hPa 0,0 l/m 0,0 km/h (0 Bft) N 7 5 min 0,000 mm 1,0 UV-I 318 W/m 11,0 C 31,8 C 0,0 km/h (0 Bft) 0,00 %
16.07.2015 18:45 31,6 C 29 % 1012,3 hPa 0,0 l/m 0,0 km/h (0 Bft) NO 35 5 min 0,000 mm 1,0 UV-I 294 W/m 11,4 C 31,6 C 0,0 km/h (0 Bft) 0,00 %
16.07.2015 18:50 31,5 C 29 % 1012,2 hPa 0,0 l/m 0,0 km/h (0 Bft) N-NO 31 5 min 0,000 mm 1,0 UV-I 246 W/m 11,3 C 31,5 C 0,0 km/h (0 Bft) 0,00 %
16.07.2015 18:55 31,5 C 28 % 1012,3 hPa 0,0 l/m 0,0 km/h (0 Bft) N-NO 30 5 min 0,000 mm 1,0 UV-I 220 W/m 10,8 C 31,5 C 0,0 km/h (0 Bft) 0,00 %
16.07.2015 19:00 31,6 C 28 % 1012,4 hPa 0,0 l/m 0,0 km/h (0 Bft) N 8 5 min 0,000 mm 1,0 UV-I 190 W/m 10,8 C 31,6 C 0,0 km/h (0 Bft) 0,00 %
16.07.2015 19:05 31,8 C 27 % 1012,4 hPa 0,0 l/m 0,0 km/h (0 Bft) NO 38 0 min 0,000 mm 1,0 UV-I 103 W/m 10,5 C 31,8 C 0,0 km/h (0 Bft) 0,00 %
16.07.2015 19:10 31,9 C 30 % 1012,4 hPa 0,0 l/m 0,0 km/h (0 Bft) N 352 0 min 0,000 mm 1,0 UV-I 92 W/m 12,1 C 31,9 C 0,0 km/h (0 Bft) 0,00 %
16.07.2015 19:15 32,0 C 32 % 1012,2 hPa 0,0 l/m 0,0 km/h (0 Bft) NO 45 0 min 0,000 mm 1,0 UV-I 80 W/m 13,2 C 32,0 C 0,0 km/h (0 Bft) 0,00 %
16.07.2015 19:20 31,9 C 28 % 1012,2 hPa 0,0 l/m 0,0 km/h (0 Bft) NO 46 0 min 0,000 mm 1,0 UV-I 45 W/m 11,1 C 31,9 C 0,0 km/h (0 Bft) 0,00 %
16.07.2015 19:25 31,8 C 29 % 1012,3 hPa 0,0 l/m 0,0 km/h (0 Bft) O-NO 71 0 min 0,000 mm 1,0 UV-I 35 W/m 11,5 C 31,8 C 0,0 km/h (0 Bft) 0,00 %
16.07.2015 19:30 31,6 C 28 % 1012,2 hPa 0,0 l/m 0,0 km/h (0 Bft) NO 46 0 min 0,000 mm 1,0 UV-I 20 W/m 10,8 C 31,6 C 0,0 km/h (0 Bft) 0,00 %
16.07.2015 19:35 31,5 C 28 % 1012,3 hPa 0,0 l/m 0,0 km/h (0 Bft) NO 46 0 min 0,000 mm 1,0 UV-I 11 W/m 10,8 C 31,5 C 0,0 km/h (0 Bft) 0,00 %
16.07.2015 19:40 31,3 C 28 % 1012,5 hPa 0,0 l/m 0,0 km/h (0 Bft) NO 40 0 min 0,000 mm 1,0 UV-I 8 W/m 10,6 C 31,3 C 0,0 km/h (0 Bft) 0,00 %
16.07.2015 19:45 31,2 C 28 % 1012,4 hPa 0,0 l/m 0,0 km/h (0 Bft) NO 46 0 min 0,000 mm 0,0 UV-I 6 W/m 10,5 C 31,2 C 0,0 km/h (0 Bft) 0,00 %
16.07.2015 19:50 31,1 C 28 % 1012,5 hPa 0,0 l/m 0,0 km/h (0 Bft) NO 45 0 min 0,000 mm 0,0 UV-I 3 W/m 10,4 C 31,1 C 0,0 km/h (0 Bft) 0,00 %
16.07.2015 19:55 31,0 C 28 % 1012,5 hPa 0,0 l/m 0,0 km/h (0 Bft) NO 43 0 min 0,000 mm 0,0 UV-I 1 W/m 10,3 C 31,0 C 0,0 km/h (0 Bft) 0,00 %
16.07.2015 20:00 31,0 C 31 % 1012,5 hPa 0,0 l/m 0,0 km/h (0 Bft) O-NO 72 0 min 0,000 mm 0,0 UV-I 0 W/m 11,9 C 31,0 C 0,0 km/h (0 Bft) 0,00 %
16.07.2015 20:05 30,9 C 38 % 1012,7 hPa 0,0 l/m 0,0 km/h (0 Bft) O-NO 72 0 min 0,000 mm 0,0 UV-I 0 W/m 14,9 C 30,9 C 0,0 km/h (0 Bft) 0,00 %
16.07.2015 20:10 30,6 C 40 % 1012,7 hPa 0,0 l/m 0,0 km/h (0 Bft) O-NO 72 0 min 0,000 mm 0,0 UV-I 0 W/m 15,4 C 30,6 C 0,0 km/h (0 Bft) 0,00 %
16.07.2015 20:15 30,0 C 41 % 1012,7 hPa 0,0 l/m 0,0 km/h (0 Bft) NO 47 0 min 0,000 mm 0,0 UV-I 0 W/m 15,3 C 30,0 C 0,0 km/h (0 Bft) 0,00 %
16.07.2015 20:20 29,4 C 42 % 1012,8 hPa 0,0 l/m 0,0 km/h (0 Bft) NO 49 0 min 0,000 mm 0,0 UV-I 0 W/m 15,1 C 29,4 C 0,0 km/h (0 Bft) 0,00 %
16.07.2015 20:25 28,9 C 44 % 1012,9 hPa 0,0 l/m 0,0 km/h (0 Bft) NO 43 0 min 0,000 mm 0,0 UV-I 0 W/m 15,4 C 28,9 C 0,0 km/h (0 Bft) 0,00 %
16.07.2015 20:30 28,4 C 47 % 1013,0 hPa 0,0 l/m 0,0 km/h (0 Bft) NO 50 0 min 0,000 mm 0,0 UV-I 0 W/m 16,0 C 28,4 C 0,0 km/h (0 Bft) 0,00 %
16.07.2015 20:35 27,9 C 46 % 1012,9 hPa 0,0 l/m 0,0 km/h (0 Bft) O-NO 64 0 min 0,000 mm 0,0 UV-I 0 W/m 15,2 C 27,9 C 0,0 km/h (0 Bft) 0,00 %
16.07.2015 20:40 27,3 C 45 % 1013,2 hPa 0,0 l/m 0,0 km/h (0 Bft) NO 53 0 min 0,000 mm 0,0 UV-I 0 W/m 14,3 C 27,3 C 0,0 km/h (0 Bft) 0,00 %
16.07.2015 20:45 26,9 C 48 % 1013,1 hPa 0,0 l/m 0,0 km/h (0 Bft) NO 49 0 min 0,000 mm 0,0 UV-I 0 W/m 14,9 C 26,9 C 0,0 km/h (0 Bft) 0,00 %
16.07.2015 20:50 26,6 C 47 % 1013,1 hPa 0,0 l/m 0,0 km/h (0 Bft) O-NO 64 0 min 0,000 mm 0,0 UV-I 0 W/m 14,3 C 26,6 C 0,0 km/h (0 Bft) 0,00 %
16.07.2015 20:55 26,2 C 45 % 1013,3 hPa 0,0 l/m 0,0 km/h (0 Bft) O-NO 59 0 min 0,000 mm 0,0 UV-I 0 W/m 13,3 C 26,2 C 0,0 km/h (0 Bft) 0,00 %
16.07.2015 21:00 25,9 C 47 % 1013,2 hPa 0,0 l/m 0,0 km/h (0 Bft) NO 54 0 min 0,000 mm 0,0 UV-I 0 W/m 13,7 C 25,9 C 0,0 km/h (0 Bft) 0,00 %
16.07.2015 21:05 25,6 C 47 % 1013,3 hPa 0,0 l/m 0,0 km/h (0 Bft) NO 44 0 min 0,000 mm 0,0 UV-I 0 W/m 13,4 C 25,6 C 0,0 km/h (0 Bft) 0,00 %
16.07.2015 21:10 25,3 C 49 % 1013,5 hPa 0,0 l/m 0,0 km/h (0 Bft) NO 50 0 min 0,000 mm 0,0 UV-I 0 W/m 13,8 C 25,3 C 0,0 km/h (0 Bft) 0,00 %
16.07.2015 21:15 25,0 C 47 % 1013,6 hPa 0,0 l/m 0,0 km/h (0 Bft) NO 50 0 min 0,000 mm 0,0 UV-I 0 W/m 12,9 C 25,0 C 0,0 km/h (0 Bft) 0,00 %
16.07.2015 21:20 24,8 C 48 % 1013,6 hPa 0,0 l/m 0,0 km/h (0 Bft) NO 51 0 min 0,000 mm 0,0 UV-I 0 W/m 13,0 C 24,8 C 0,0 km/h (0 Bft) 0,00 %
16.07.2015 21:25 24,6 C 52 % 1013,7 hPa 0,0 l/m 0,0 km/h (0 Bft) NO 47 0 min 0,000 mm 0,0 UV-I 0 W/m 14,1 C 24,6 C 0,0 km/h (0 Bft) 0,00 %
16.07.2015 21:30 24,4 C 52 % 1013,5 hPa 0,0 l/m 0,0 km/h (0 Bft) NO 48 0 min 0,000 mm 0,0 UV-I 0 W/m 13,9 C 24,4 C 0,0 km/h (0 Bft) 0,00 %
16.07.2015 21:35 24,2 C 53 % 1013,9 hPa 0,0 l/m 0,0 km/h (0 Bft) NO 48 0 min 0,000 mm 0,0 UV-I 0 W/m 14,0 C 24,2 C 0,0 km/h (0 Bft) 0,00 %
16.07.2015 21:40 24,0 C 52 % 1013,8 hPa 0,0 l/m 0,0 km/h (0 Bft) O-NO 71 0 min 0,000 mm 0,0 UV-I 0 W/m 13,5 C 24,0 C 0,0 km/h (0 Bft) 0,00 %
16.07.2015 21:45 23,9 C 53 % 1013,8 hPa 0,0 l/m 0,0 km/h (0 Bft) O-NO 71 0 min 0,000 mm 0,0 UV-I 0 W/m 13,7 C 23,9 C 0,0 km/h (0 Bft) 0,00 %
16.07.2015 21:50 23,7 C 58 % 1013,9 hPa 0,0 l/m 0,0 km/h (0 Bft) NO 47 0 min 0,000 mm 0,0 UV-I 0 W/m 14,9 C 23,7 C 0,0 km/h (0 Bft) 0,00 %
16.07.2015 21:55 23,5 C 58 % 1013,9 hPa 0,0 l/m 0,0 km/h (0 Bft) NO 43 0 min 0,000 mm 0,0 UV-I 0 W/m 14,7 C 23,5 C 0,0 km/h (0 Bft) 0,00 %
16.07.2015 22:00 23,2 C 58 % 1014,0 hPa 0,0 l/m 0,0 km/h (0 Bft) NO 42 0 min 0,000 mm 0,0 UV-I 0 W/m 14,5 C 23,2 C 0,0 km/h (0 Bft) 0,00 %
16.07.2015 22:05 22,9 C 57 % 1014,1 hPa 0,0 l/m 0,0 km/h (0 Bft) NO 49 0 min 0,000 mm 0,0 UV-I 0 W/m 13,9 C 22,9 C 0,0 km/h (0 Bft) 0,00 %
16.07.2015 22:10 22,6 C 56 % 1013,9 hPa 0,0 l/m 0,0 km/h (0 Bft) O-NO 60 0 min 0,000 mm 0,0 UV-I 0 W/m 13,4 C 22,6 C 0,0 km/h (0 Bft) 0,00 %
16.07.2015 22:15 22,6 C 58 % 1014,0 hPa 0,0 l/m 0,0 km/h (0 Bft) O-NO 60 0 min 0,000 mm 0,0 UV-I 0 W/m 13,9 C 22,6 C 0,0 km/h (0 Bft) 0,00 %
16.07.2015 22:20 22,6 C 59 % 1013,9 hPa 0,0 l/m 0,0 km/h (0 Bft) O-NO 60 0 min 0,000 mm 0,0 UV-I 0 W/m 14,2 C 22,6 C 0,0 km/h (0 Bft) 0,00 %
16.07.2015 22:25 22,6 C 57 % 1014,2 hPa 0,0 l/m 0,0 km/h (0 Bft) O-NO 60 0 min 0,000 mm 0,0 UV-I 0 W/m 13,6 C 22,6 C 0,0 km/h (0 Bft) 0,00 %
16.07.2015 22:30 22,6 C 57 % 1014,1 hPa 0,0 l/m 0,0 km/h (0 Bft) NO 49 0 min 0,000 mm 0,0 UV-I 0 W/m 13,6 C 22,6 C 0,0 km/h (0 Bft) 0,00 %
16.07.2015 22:35 22,6 C 58 % 1014,2 hPa 0,0 l/m 0,0 km/h (0 Bft) NO 47 0 min 0,000 mm 0,0 UV-I 0 W/m 13,9 C 22,6 C 0,0 km/h (0 Bft) 0,00 %
16.07.2015 22:40 22,7 C 57 % 1014,3 hPa 0,0 l/m 0,0 km/h (0 Bft) NO 56 0 min 0,000 mm 0,0 UV-I 0 W/m 13,7 C 22,7 C 0,0 km/h (0 Bft) 0,00 %
16.07.2015 22:45 22,8 C 62 % 1014,5 hPa 0,0 l/m 0,0 km/h (0 Bft) O-NO 77 0 min 0,000 mm 0,0 UV-I 0 W/m 15,1 C 22,8 C 0,0 km/h (0 Bft) 0,00 %
16.07.2015 22:50 22,8 C 62 % 1014,5 hPa 0,0 l/m 0,0 km/h (0 Bft) NO 53 0 min 0,000 mm 0,0 UV-I 0 W/m 15,1 C 22,8 C 0,0 km/h (0 Bft) 0,00 %
16.07.2015 22:55 22,5 C 58 % 1014,4 hPa 0,0 l/m 0,0 km/h (0 Bft) NO 56 0 min 0,000 mm 0,0 UV-I 0 W/m 13,8 C 22,5 C 0,0 km/h (0 Bft) 0,00 %
16.07.2015 23:00 22,3 C 60 % 1014,5 hPa 0,0 l/m 0,0 km/h (0 Bft) NO 48 0 min 0,000 mm 0,0 UV-I 0 W/m 14,2 C 22,3 C 0,0 km/h (0 Bft) 0,00 %
16.07.2015 23:05 22,4 C 63 % 1014,4 hPa 0,0 l/m 0,0 km/h (0 Bft) NO 37 0 min 0,000 mm 0,0 UV-I 0 W/m 15,0 C 22,4 C 0,0 km/h (0 Bft) 0,00 %
16.07.2015 23:10 22,4 C 63 % 1014,2 hPa 0,0 l/m 0,0 km/h (0 Bft) NO 51 0 min 0,000 mm 0,0 UV-I 0 W/m 15,0 C 22,4 C 0,0 km/h (0 Bft) 0,00 %
16.07.2015 23:15 22,3 C 62 % 1014,5 hPa 0,0 l/m 0,0 km/h (0 Bft) O-NO 66 0 min 0,000 mm 0,0 UV-I 0 W/m 14,7 C 22,3 C 0,0 km/h (0 Bft) 0,00 %
16.07.2015 23:20 22,1 C 62 % 1014,4 hPa 0,0 l/m 0,0 km/h (0 Bft) N-NO 27 0 min 0,000 mm 0,0 UV-I 0 W/m 14,5 C 22,1 C 0,0 km/h (0 Bft) 0,00 %
16.07.2015 23:25 22,0 C 64 % 1014,4 hPa 0,0 l/m 0,0 km/h (0 Bft) NO 48 0 min 0,000 mm 0,0 UV-I 0 W/m 14,9 C 22,0 C 0,0 km/h (0 Bft) 0,00 %
16.07.2015 23:30 22,0 C 63 % 1014,5 hPa 0,0 l/m 0,0 km/h (0 Bft) N-NW 348 0 min 0,000 mm 0,0 UV-I 0 W/m 14,6 C 22,0 C 0,0 km/h (0 Bft) 0,00 %
16.07.2015 23:35 21,9 C 67 % 1014,5 hPa 0,0 l/m 0,0 km/h (0 Bft) NO 46 0 min 0,000 mm 0,0 UV-I 0 W/m 15,5 C 21,9 C 0,0 km/h (0 Bft) 0,00 %
16.07.2015 23:40 21,7 C 65 % 1014,4 hPa 0,0 l/m 0,0 km/h (0 Bft) O-NO 62 0 min 0,000 mm 0,0 UV-I 0 W/m 14,8 C 21,7 C 0,0 km/h (0 Bft) 0,00 %
16.07.2015 23:45 21,6 C 67 % 1014,1 hPa 0,0 l/m 0,0 km/h (0 Bft) O-NO 62 0 min 0,000 mm 0,0 UV-I 0 W/m 15,2 C 21,6 C 0,0 km/h (0 Bft) 0,00 %
16.07.2015 23:50 21,5 C 67 % 1014,2 hPa 0,0 l/m 0,0 km/h (0 Bft) O-NO 62 0 min 0,000 mm 0,0 UV-I 0 W/m 15,1 C 21,5 C 0,0 km/h (0 Bft) 0,00 %
16.07.2015 23:55 21,4 C 65 % 1014,3 hPa 0,0 l/m 0,0 km/h (0 Bft) O-NO 66 0 min 0,000 mm 0,0 UV-I 0 W/m 14,5 C 21,4 C 0,0 km/h (0 Bft) 0,00 %
_ Min-Zeit 05:25 18:30 18:40 - 00:00 - - - - - - 18:30 05:25 00:00 00:00
Minimum _ 13,4 C 26 % 1012,2 hPa - 0,0 km/h (0 Bft) - - - - - - 9,7 C 13,4 C 0,0 km/h (0 Bft) 0,00 %
_ Max-Zeit 17:50 04:00 03:15 00:00 17:00 - - 05:50 00:00 12:35 14:35 20:30 17:50 09:55 00:00
Maximum _ 32,7 C 95 % 1018,7 hPa 0,0 l/m 6,8 km/h
N-NW (2 Bft)
- - 5 min 0,000 mm 6,0 UV-I 971 W/m 16,0 C 32,7 C 11,9 km/h
O-SO (2 Bft)
0,00 %
Durchschnitt _ 24,1 C 57 % 1015,7 hPa #0,0 l/m 0,5 km/h (0 Bft) O-SO - #13:15 h #0,000 mm 2,9 UV-I 603 W/m 13,4 C 24,1 C 1,2 km/h (1 Bft) 0,00 %